HS5XHC-1 Weather Reports


Display with metric or nautical units.
time (UTC)temp
F
wind
direction
speed
MPH
gust
MPH
rain 1hr
in
rain 24hr
in
rain mn
in
humidity
%
barometer
mb
20260504050418 93 0 0.0 0.0 0.00 0.00 0.00 36 968.0
20260504045354 92 0 0.0 0.0 0.00 0.00 0.00 36 969.0
20260504044330 91 0 0.0 0.0 0.00 0.00 0.00 36 969.0
20260504043306 91 0 0.0 0.0 0.00 0.00 0.00 37 969.0
20260504042242 89 0 0.0 0.0 0.00 0.00 0.00 39 969.0
20260504041218 89 0 0.0 0.0 0.00 0.00 0.00 41 969.0
20260504040155 89 0 0.0 0.0 0.00 0.00 0.00 40 969.0
20260504035130 88 0 0.0 0.0 0.00 0.00 0.00 42 969.0
20260504034106 87 0 0.0 0.0 0.00 0.00 0.00 42 969.0
20260504033042 85 0 0.0 0.0 0.00 0.00 0.00 45 970.0
20260504032018 85 0 0.0 0.0 0.00 0.00 0.00 47 970.0
20260504030954 85 0 0.0 0.0 0.00 0.00 0.00 46 970.0
20260504025930 85 0 0.0 0.0 0.00 0.00 0.00 49 970.0
20260504024906 84 0 0.0 0.0 0.00 0.00 0.00 50 970.0
20260504023842 84 0 0.0 0.0 0.00 0.00 0.00 51 970.0
20260504022818 83 0 0.0 0.0 0.00 0.00 0.00 52 970.0
20260504021754 82 0 0.0 0.0 0.00 0.00 0.00 54 970.0
20260504020730 82 0 0.0 0.0 0.00 0.00 0.00 55 970.0
20260504015706 82 0 0.0 0.0 0.00 0.00 0.00 55 970.0
20260504014642 81 0 0.0 0.0 0.00 0.00 0.00 57 970.0
20260504013618 80 0 0.0 0.0 0.00 0.00 0.00 58 970.0
20260504012554 81 0 0.0 0.0 0.00 0.00 0.00 58 969.0
20260504011530 80 0 0.0 0.0 0.00 0.00 0.00 59 969.0
20260504010506 80 0 0.0 0.0 0.00 0.00 0.00 57 969.0
20260504004418 80 0 0.0 0.0 0.00 0.00 0.00 57 969.0
20260504003354 81 0 0.0 0.0 0.00 0.00 0.00 56 969.0
20260504002329 81 0 0.0 0.0 0.00 0.00 0.00 57 969.0
20260504001305 80 0 0.0 0.0 0.00 0.00 0.00 58 969.0
20260504000241 81 0 0.0 0.0 0.00 0.00 0.00 56 968.0
20260503235217 78 0 0.0 0.0 0.00 0.00 0.00 60 968.0
20260503234153 79 0 0.0 0.0 0.00 0.00 0.00 60 968.0
20260503233129 79 0 0.0 0.0 0.00 0.00 0.00 60 968.0
20260503232105 79 0 0.0 0.0 0.00 0.00 0.00 58 968.0
20260503231042 81 0 0.0 0.0 0.00 0.00 0.00 55 968.0
20260503230018 81 0 0.0 0.0 0.00 0.00 0.00 54 968.0
20260503224954 82 0 0.0 0.0 0.00 0.00 0.00 54 968.0
20260503223929 82 0 0.0 0.0 0.00 0.00 0.00 54 968.0
20260503222905 82 0 0.0 0.0 0.00 0.00 0.00 54 968.0
20260503221841 81 0 0.0 0.0 0.00 0.00 0.00 54 968.0
20260503220817 82 0 0.0 0.0 0.00 0.00 0.00 53 967.0
20260503215753 82 0 0.0 0.0 0.00 0.00 0.00 54 967.0
20260503214729 82 0 0.0 0.0 0.00 0.00 0.00 53 967.0
20260503213705 82 0 0.0 0.0 0.00 0.00 0.00 54 967.0
20260503212641 80 0 0.0 0.0 0.00 0.00 0.00 55 967.0
20260503211618 81 0 0.0 0.0 0.00 0.00 0.00 55 967.0
20260503210554 80 0 0.0 0.0 0.00 0.00 0.00 57 967.0
20260503205530 81 0 0.0 0.0 0.00 0.00 0.00 54 967.0
20260503204506 82 0 0.0 0.0 0.00 0.00 0.00 54 967.0
20260503203441 80 0 0.0 0.0 0.00 0.00 0.00 57 967.0
20260503202417 80 0 0.0 0.0 0.00 0.00 0.00 57 967.0
20260503201353 81 0 0.0 0.0 0.00 0.00 0.00 55 967.0
20260503200330 82 0 0.0 0.0 0.00 0.00 0.00 54 967.0
20260503195901 81 0 0.0 0.0 0.00 0.00 0.00 54 967.0
20260503194837 82 0 0.0 0.0 0.00 0.00 0.00 54 967.0
20260503193750 80 0 0.0 0.0 0.00 0.00 0.00 57 966.0
20260503192727 81 0 0.0 0.0 0.00 0.00 0.00 57 967.0
20260503191703 81 0 0.0 0.0 0.00 0.00 0.00 55 967.0
20260503190639 81 0 0.0 0.0 0.00 0.00 0.00 55 967.0
20260503185615 81 0 0.0 0.0 0.00 0.00 0.00 57 967.0
20260503184551 80 0 0.0 0.0 0.00 0.00 0.00 58 967.0
20260503183527 80 0 0.0 0.0 0.00 0.00 0.00 58 967.0
20260503182503 81 0 0.0 0.0 0.00 0.00 0.00 57 967.0
20260503181439 82 0 0.0 0.0 0.00 0.00 0.00 55 967.0
20260503180414 82 0 0.0 0.0 0.00 0.00 0.00 54 967.0
20260503175350 82 0 0.0 0.0 0.00 0.00 0.00 54 967.0
20260503174326 83 0 0.0 0.0 0.00 0.00 0.00 52 967.0
20260503173302 85 0 0.0 0.0 0.00 0.00 0.00 50 967.0
20260503172238 84 0 0.0 0.0 0.00 0.00 0.00 52 967.0
20260503171214 84 0 0.0 0.0 0.00 0.00 0.00 51 967.0
20260503170151 84 0 0.0 0.0 0.00 0.00 0.00 52 967.0
20260503150615 81 0 0.0 0.0 0.00 0.00 0.00 56 967.0
20260503131152 86 0 0.0 0.0 0.00 0.00 0.00 45 965.0
20260503130128 87 0 0.0 0.0 0.00 0.00 0.00 43 965.0
20260503110703 96 0 0.0 0.0 0.00 0.00 0.00 30 963.0
20260503090215 100 0 0.0 0.0 0.00 0.00 0.00 27 962.0
20260503081015 100 0 0.0 0.0 0.00 0.00 0.00 26 963.0
20260503072840 99 0 0.0 0.0 0.00 0.00 0.00 27 964.0
20260503071816 99 0 0.0 0.0 0.00 0.00 0.00 27 964.0
20260503070752 98 0 0.0 0.0 0.00 0.00 0.00 27 964.0